When you browse on this site, cookies collect data to enhance your experience and personalize the content and advertising you see.
Visit our Privacy Policy to learn more. By continuing to use the site, you agree to this use of cookies and data.
  • In Österreich
  • Länderverzeichnis
  • Für 7 Tage
  • Wassertemperatur
  • Satellitenkarten
  • Wetterkarte
  • News
  • Widgets
  • user-avatar
    Anmelden

    Stündliche Wetter Torrington

    Heute, 19 Februar, Dienstag

    Zeit Temperatur Niederschläge Wind Luftdruck Luftfeuchtigkeit
    00:00 -12°C° 0 mm 5 m/S 749 mmHg 76%
    01:00 -12°C° 0 mm 4 m/S 749 mmHg 77%
    02:00 -14°C° 0 mm 4 m/S 750 mmHg 78%
    03:00 -14°C° 0 mm 4 m/S 750 mmHg 78%
    04:00 -14°C° 0 mm 4 m/S 751 mmHg 79%
    05:00 -14°C° 0 mm 4 m/S 751 mmHg 78%
    06:00 -14°C° 0 mm 4 m/S 752 mmHg 78%
    07:00 -12°C° 0 mm 2 m/S 753 mmHg 76%
    08:00 -12°C° 0 mm 3 m/S 753 mmHg 69%
    09:00 -11°C° 0 mm 4 m/S 754 mmHg 63%
    10:00 -11°C° 0 mm 5 m/S 754 mmHg 57%
    11:00 -9°C° 0 mm 4 m/S 754 mmHg 55%
    12:00 -8°C° 0 mm 4 m/S 754 mmHg 53%
    13:00 -5°C° 0 mm 4 m/S 754 mmHg 50%
    14:00 -7°C° 0 mm 4 m/S 754 mmHg 52%
    15:00 -7°C° 0 mm 4 m/S 754 mmHg 53%
    16:00 -7°C° 0 mm 4 m/S 754 mmHg 55%
    17:00 -7°C° 0 mm 3 m/S 754 mmHg 62%
    18:00 -9°C° 0 mm 3 m/S 755 mmHg 69%
    19:00 -10°C° 0 mm 3 m/S 755 mmHg 76%
    20:00 -10°C° 0 mm 3 m/S 755 mmHg 75%
    21:00 -10°C° 0 mm 3 m/S 756 mmHg 75%
    22:00 -10°C° 0 mm 3 m/S 756 mmHg 74%
    23:00 -9°C° 0 mm 2 m/S 756 mmHg 76%

    Morgen, 20 Februar, Mittwoch

    Zeit Temperatur Niederschläge Wind Luftdruck Luftfeuchtigkeit
    00:00 -9°C° 0 mm 2 m/S 756 mmHg 78%
    01:00 -10°C° 0 mm 2 m/S 756 mmHg 80%
    02:00 -10°C° 0 mm 2 m/S 756 mmHg 81%
    03:00 -10°C° 0 mm 2 m/S 756 mmHg 82%
    04:00 -9°C° 0 mm 1 m/S 756 mmHg 83%
    05:00 -9°C° 0 mm 1 m/S 755 mmHg 83%
    06:00 -8°C° 0 mm 1 m/S 755 mmHg 82%
    07:00 -8°C° 0 mm 1 m/S 755 mmHg 81%
    08:00 -7°C° 0 mm 1 m/S 755 mmHg 74%
    09:00 -4°C° 0 mm 1 m/S 755 mmHg 66%
    10:00 -4°C° 0 mm 0 m/S 755 mmHg 59%
    11:00 -2°C° 0 mm 1 m/S 755 mmHg 57%
    12:00 -3°C° 0 mm 2 m/S 754 mmHg 55%
    13:00 -2°C° 0 mm 3 m/S 754 mmHg 53%
    14:00 -2°C° 0 mm 3 m/S 753 mmHg 58%
    15:00 -4°C° 0 mm 3 m/S 752 mmHg 62%
    16:00 -4°C° 0 mm 3 m/S 752 mmHg 67%
    17:00 -4°C° 0.1 mm 3 m/S 751 mmHg 74%
    18:00 -4°C° 0.1 mm 3 m/S 751 mmHg 80%
    19:00 -5°C° 0.1 mm 3 m/S 750 mmHg 87%
    20:00 -4°C° 0.2 mm 3 m/S 749 mmHg 89%
    21:00 -4°C° 0.2 mm 3 m/S 748 mmHg 91%
    22:00 -4°C° 0.2 mm 3 m/S 747 mmHg 93%
    23:00 -2°C° 1.1 mm 3 m/S 746 mmHg 94%

    übermorgen, 21 Februar, Donnerstag

    Zeit Temperatur Niederschläge Wind Luftdruck Luftfeuchtigkeit
    00:00 -1°C° 1.1 mm 3 m/S 745 mmHg 95%
    01:00 +1°C° 1.1 mm 2 m/S 743 mmHg 97%
    02:00 +2°C° 1 mm 2 m/S 742 mmHg 97%
    03:00 +2°C° 1 mm 2 m/S 740 mmHg 98%
    04:00 +3°C° 1 mm 2 m/S 738 mmHg 98%
    05:00 +3°C° 0.1 mm 2 m/S 738 mmHg 98%
    06:00 +3°C° 0.1 mm 3 m/S 737 mmHg 98%
    07:00 +3°C° 0.1 mm 3 m/S 737 mmHg 97%
    08:00 +5°C° 0 mm 4 m/S 737 mmHg 94%
    09:00 +6°C° 0 mm 4 m/S 737 mmHg 91%
    10:00 +7°C° 0 mm 5 m/S 737 mmHg 88%
    11:00 +8°C° 0 mm 5 m/S 737 mmHg 80%
    12:00 +8°C° 0 mm 5 m/S 737 mmHg 73%
    13:00 +9°C° 0 mm 5 m/S 737 mmHg 65%
    14:00 +8°C° 0 mm 5 m/S 738 mmHg 67%
    15:00 +6°C° 0 mm 5 m/S 738 mmHg 68%
    16:00 +5°C° 0 mm 5 m/S 738 mmHg 69%
    17:00 +4°C° 0 mm 4 m/S 739 mmHg 72%
    18:00 +1°C° 0 mm 4 m/S 740 mmHg 75%
    19:00 0°C° 0 mm 4 m/S 741 mmHg 78%
    20:00 -1°C° 0 mm 4 m/S 741 mmHg 79%
    21:00 -1°C° 0 mm 4 m/S 742 mmHg 80%
    22:00 -2°C° 0 mm 4 m/S 743 mmHg 82%
    23:00 -2°C° 0 mm 4 m/S 743 mmHg 82%

    22 Februar, Freitag

    Zeit Temperatur Niederschläge Wind Luftdruck Luftfeuchtigkeit
    00:00 -2°C° 0 mm 4 m/S 743 mmHg 82%
    01:00 -2°C° 0 mm 4 m/S 744 mmHg 82%
    02:00 -2°C° 0 mm 4 m/S 744 mmHg 82%
    03:00 -3°C° 0 mm 4 m/S 745 mmHg 82%
    04:00 -3°C° 0 mm 4 m/S 745 mmHg 82%
    05:00 -3°C° 0 mm 4 m/S 746 mmHg 82%
    06:00 -3°C° 0 mm 4 m/S 747 mmHg 81%
    07:00 -4°C° 0 mm 4 m/S 747 mmHg 80%
    08:00 -3°C° 0 mm 4 m/S 748 mmHg 76%
    09:00 -1°C° 0 mm 4 m/S 749 mmHg 71%
    10:00 0°C° 0 mm 4 m/S 749 mmHg 66%
    11:00 0°C° 0 mm 4 m/S 750 mmHg 65%
    12:00 +1°C° 0 mm 4 m/S 750 mmHg 63%
    13:00 +3°C° 0 mm 4 m/S 750 mmHg 61%
    14:00 +3°C° 0 mm 4 m/S 750 mmHg 63%
    15:00 +2°C° 0 mm 3 m/S 750 mmHg 65%
    16:00 +2°C° 0 mm 3 m/S 750 mmHg 67%
    17:00 +1°C° 0 mm 3 m/S 751 mmHg 73%
    18:00 -1°C° 0 mm 2 m/S 751 mmHg 79%
    19:00 -2°C° 0 mm 2 m/S 752 mmHg 84%
    20:00 -2°C° 0 mm 2 m/S 752 mmHg 83%
    21:00 -2°C° 0 mm 2 m/S 752 mmHg 82%
    22:00 -2°C° 0 mm 2 m/S 753 mmHg 82%
    23:00 -3°C° 0 mm 2 m/S 752 mmHg 82%

    23 Februar, Samstag

    Zeit Temperatur Niederschläge Wind Luftdruck Luftfeuchtigkeit
    00:00 -3°C° 0 mm 2 m/S 752 mmHg 82%
    01:00 -1°C° 0 mm 1 m/S 752 mmHg 82%
    02:00 -1°C° 0 mm 1 m/S 752 mmHg 82%
    03:00 -1°C° 0 mm 1 m/S 752 mmHg 82%
    04:00 -1°C° 0 mm 1 m/S 752 mmHg 82%
    05:00 -2°C° 0 mm 0 m/S 752 mmHg 80%
    06:00 -2°C° 0 mm 0 m/S 752 mmHg 79%
    07:00 -2°C° 0 mm 0 m/S 752 mmHg 77%
    08:00 0°C° 0 mm 0 m/S 752 mmHg 71%
    09:00 +2°C° 0 mm 1 m/S 752 mmHg 64%
    10:00 +4°C° 0 mm 1 m/S 752 mmHg 58%
    11:00 +5°C° 0 mm 1 m/S 751 mmHg 59%
    12:00 +4°C° 0 mm 2 m/S 751 mmHg 60%
    13:00 +5°C° 0 mm 2 m/S 750 mmHg 61%
    14:00 +5°C° 0 mm 2 m/S 750 mmHg 63%
    15:00 +5°C° 0 mm 2 m/S 749 mmHg 66%
    16:00 +5°C° 0 mm 2 m/S 748 mmHg 68%
    17:00 +3°C° 0 mm 2 m/S 748 mmHg 75%
    18:00 +2°C° 0 mm 2 m/S 748 mmHg 81%
    19:00 +2°C° 0 mm 1 m/S 748 mmHg 87%
    20:00 +2°C° 0 mm 1 m/S 747 mmHg 89%
    21:00 +2°C° 0 mm 1 m/S 746 mmHg 90%
    22:00 +2°C° 0 mm 1 m/S 746 mmHg 91%
    23:00 +2°C° 0.1 mm 1 m/S 745 mmHg 92%

    24 Februar, Sonntag

    Zeit Temperatur Niederschläge Wind Luftdruck Luftfeuchtigkeit
    00:00 +2°C° 0.1 mm 1 m/S 744 mmHg 94%
    01:00 +2°C° 0.1 mm 1 m/S 743 mmHg 95%
    02:00 +3°C° 2.2 mm 1 m/S 742 mmHg 96%
    03:00 +2°C° 2.2 mm 2 m/S 741 mmHg 97%
    04:00 +2°C° 2.2 mm 2 m/S 740 mmHg 98%
    05:00 +3°C° 2 mm 2 m/S 739 mmHg 98%
    06:00 +3°C° 2 mm 2 m/S 737 mmHg 98%
    07:00 +2°C° 2 mm 3 m/S 736 mmHg 98%
    08:00 +4°C° 0.4 mm 2 m/S 735 mmHg 98%
    09:00 +4°C° 0.4 mm 2 m/S 734 mmHg 98%
    10:00 +4°C° 0.4 mm 2 m/S 733 mmHg 98%
    11:00 +5°C° 0.5 mm 2 m/S 732 mmHg 98%
    12:00 +6°C° 0.5 mm 1 m/S 731 mmHg 98%
    13:00 +6°C° 0.5 mm 1 m/S 729 mmHg 98%
    14:00 +7°C° 0.1 mm 2 m/S 728 mmHg 98%
    15:00 +8°C° 0.1 mm 2 m/S 728 mmHg 98%
    16:00 +9°C° 0.1 mm 3 m/S 727 mmHg 98%
    17:00 +9°C° 0.1 mm 3 m/S 727 mmHg 92%
    18:00 +8°C° 0.1 mm 4 m/S 727 mmHg 86%
    19:00 +7°C° 0.1 mm 5 m/S 727 mmHg 80%
    20:00 +5°C° 0 mm 6 m/S 727 mmHg 79%
    21:00 +4°C° 0 mm 6 m/S 726 mmHg 78%
    22:00 +3°C° 0 mm 6 m/S 726 mmHg 77%
    23:00 +3°C° 0 mm 6 m/S 726 mmHg 77%
    Mehr zeigen